Theta_e
341 341 341 341 338 337 337 336 334 334 333 333 333 333 333 332 331 330 329 329 326 324 326 326 323 326 330 329 329 330 329 329 329 328 328 328 328 327 325 322 322 325 326 326 327 327 327 327 328 328 328 328 328 327 327 328 328 329 328 327 328 327 327 328 327 327 328 328 328 329 327 326 327 326 324 325 327 326 326 325 325 325 325 325 325
338 339 341 339 334 335 336 335 334 333 333 333 333 332 332 331 331 330 328 327 324 324 326 324 323 328 330 328 329 328 327 329 329 328 326 325 326 324 321 320 319 318 318 321 325 325 324 326 327 328 328 327 328 328 328 328 328 328 328 328 328 327 328 328 328 328 327 328 328 328 328 326 327 327 325 325 326 326 326 326 326 325 325 325 325
336 339 340 335 331 333 334 333 332 333 333 332 331 332 331 330 329 329 327 324 323 326 328 326 325 328 329 329 328 327 328 330 328 327 323 320 321 320 318 321 323 321 319 322 325 322 321 323 323 325 326 325 327 328 327 327 327 327 327 328 328 328 328 328 328 327 327 328 327 328 328 327 327 327 326 325 325 325 326 327 327 325 324 324 325
336 338 336 332 330 333 333 333 332 332 332 330 330 331 331 329 327 327 326 323 324 328 328 327 326 328 329 329 328 329 330 327 323 323 322 322 322 318 316 323 326 325 324 326 324 317 320 324 321 321 322 323 326 327 326 327 327 327 327 327 328 328 328 328 328 327 328 328 328 328 328 327 328 327 326 326 325 325 325 326 326 326 326 325 324
337 333 330 330 331 332 332 333 332 331 330 328 330 330 328 328 328 327 324 324 327 328 328 326 326 328 328 328 330 329 325 323 321 321 322 323 320 316 320 325 325 324 325 326 321 315 317 323 324 323 321 323 325 326 327 327 327 327 327 327 326 326 327 328 327 327 328 328 328 328 328 328 328 328 327 326 325 326 327 326 326 326 326 325 324
334 331 330 331 331 331 332 334 333 331 329 328 329 327 326 327 329 327 322 323 326 326 326 324 323 325 327 329 328 322 319 323 323 322 323 324 322 322 325 326 325 324 325 324 321 319 318 320 325 326 322 322 324 324 327 327 327 328 327 326 326 325 326 327 328 327 327 327 328 328 328 328 328 327 328 327 326 326 327 327 327 326 325 325 324
332 332 332 332 331 331 332 333 332 329 327 327 327 324 324 326 327 324 321 323 324 324 324 321 319 320 323 325 322 321 324 326 324 324 325 323 321 322 322 323 324 324 323 321 320 321 320 320 323 325 324 323 322 322 324 324 324 326 327 326 326 325 324 326 327 326 326 327 327 327 327 327 326 327 328 328 327 327 326 326 326 326 326 325 325
333 333 332 332 332 330 330 330 330 329 326 325 324 324 325 325 324 323 323 323 322 322 321 319 315 312 316 321 323 327 329 326 324 324 322 317 316 318 319 322 324 323 323 324 323 322 321 320 321 324 324 323 324 323 321 320 321 324 326 325 325 324 324 325 325 326 326 326 326 326 326 325 324 326 327 327 327 326 326 326 326 325 325 324 324
332 333 332 333 333 330 327 328 330 330 327 325 324 324 324 323 322 324 324 321 321 321 319 317 312 309 317 325 328 330 327 322 321 320 316 316 319 321 323 325 324 324 324 324 324 323 321 322 322 323 324 323 324 323 320 321 322 323 323 323 324 324 323 324 325 326 326 325 326 326 325 325 324 325 326 326 326 326 325 325 324 323 323 323 323
331 334 333 334 335 331 327 328 328 328 328 326 325 324 322 321 322 324 323 320 320 319 319 315 311 314 323 329 329 328 324 320 320 316 314 320 323 322 322 323 323 323 323 323 324 324 324 324 322 320 322 322 323 322 322 322 322 321 320 322 324 324 324 324 325 325 325 325 325 325 326 325 325 325 325 326 326 325 325 324 323 322 322 323 322
332 333 333 333 335 333 330 329 327 326 328 328 325 323 321 318 320 322 322 322 320 319 319 314 313 322 328 329 328 325 321 320 319 313 313 318 321 321 321 323 323 320 319 319 320 320 320 321 320 320 321 322 323 323 323 323 321 319 317 320 323 324 324 325 325 325 325 325 325 325 325 325 324 324 324 325 326 325 324 323 322 322 321 321 320
331 332 333 334 334 334 332 330 328 327 328 328 325 323 321 317 320 323 322 322 320 321 321 316 320 327 328 328 327 321 319 318 313 311 314 318 321 323 324 323 320 316 312 312 314 315 316 316 317 319 321 323 322 322 321 321 320 318 315 316 320 322 323 324 324 325 324 324 324 324 325 324 324 324 323 324 324 324 323 322 321 320 320 320 319
333 334 334 333 333 334 332 331 330 327 327 327 324 324 322 318 321 324 322 321 321 324 324 321 325 328 327 327 321 315 317 314 310 313 319 320 322 325 325 322 320 315 310 310 313 315 315 314 312 313 317 320 321 320 319 319 318 317 313 312 314 317 320 321 322 323 324 323 323 323 324 324 324 324 323 324 323 323 323 322 320 319 318 318 318
335 337 332 330 332 333 331 331 331 329 328 328 325 325 323 320 322 322 321 322 324 326 325 323 326 327 325 322 313 311 314 312 313 319 321 321 322 324 324 322 321 316 310 311 313 311 310 309 307 308 311 314 317 318 318 318 317 313 310 308 308 309 311 314 318 321 322 322 322 322 322 322 323 324 324 323 323 322 322 321 319 319 318 317 316
335 336 332 330 331 332 332 331 331 331 331 331 329 327 325 323 324 324 321 322 325 326 323 322 324 323 320 316 310 309 311 312 317 321 321 321 321 322 323 323 321 315 310 310 310 307 306 306 306 306 307 309 312 315 315 315 313 308 306 306 306 306 306 309 315 319 319 319 319 319 319 320 321 322 323 323 322 322 322 320 319 319 318 317 315
333 332 332 330 330 333 333 332 331 331 331 331 330 328 327 325 325 325 323 322 324 325 323 321 321 319 318 316 313 312 313 316 321 321 320 320 320 322 322 322 320 313 308 308 306 306 306 305 306 306 306 307 309 311 310 309 308 306 306 306 306 306 306 307 311 314 315 316 316 316 316 317 319 321 321 321 321 320 320 320 319 319 318 317 314
330 330 331 331 331 331 332 332 332 331 331 330 328 327 328 329 329 327 325 324 324 324 322 321 320 319 319 318 317 319 320 321 322 319 317 318 320 322 321 321 318 310 306 306 305 305 305 305 305 305 305 306 308 308 306 305 305 305 305 305 305 306 305 305 306 308 311 313 314 312 312 313 315 319 321 321 320 320 319 319 319 318 318 316 314
329 331 331 332 331 329 329 330 331 331 331 329 327 327 329 329 329 328 326 325 324 323 321 321 320 320 320 319 319 320 321 322 323 317 314 316 320 321 320 319 315 307 305 306 304 305 305 304 305 305 304 305 306 307 305 305 305 304 305 305 304 304 304 305 304 306 309 310 310 309 308 308 309 314 318 318 318 318 319 318 318 318 317 317 316
332 332 330 331 331 330 330 331 330 331 331 329 327 326 328 328 328 329 328 327 326 323 321 321 321 320 321 321 321 320 318 320 321 315 311 314 318 319 320 317 311 305 305 305 305 305 305 305 305 305 305 305 305 305 305 305 305 305 305 305 305 306 307 307 307 308 309 309 310 311 312 311 310 310 313 315 315 315 315 316 316 317 318 317 316
331 330 330 331 332 331 332 331 331 331 330 329 327 326 326 326 327 327 326 326 326 323 322 322 321 320 320 322 323 320 315 314 314 311 309 310 312 315 318 315 308 304 305 305 305 306 306 306 306 306 306 306 306 306 306 306 307 307 306 307 309 310 310 311 312 312 311 310 310 311 313 314 313 312 312 313 314 314 314 314 314 315 317 317 316
331 330 330 330 330 331 331 331 331 330 329 329 329 328 327 326 326 326 325 325 324 323 322 322 321 319 320 322 322 320 318 315 311 308 307 307 308 310 313 311 306 305 305 305 306 306 306 307 307 307 307 307 307 308 307 308 308 309 308 309 312 312 311 312 313 313 312 312 311 310 311 312 313 313 313 313 313 313 314 314 314 314 316 316 316
330 329 328 327 328 330 330 330 330 330 329 330 330 330 328 326 327 328 327 326 324 323 322 321 322 322 321 320 321 321 321 319 315 309 306 307 307 306 308 308 306 305 305 305 306 306 307 307 308 308 308 308 309 308 309 309 309 309 309 310 312 312 310 310 312 311 310 311 311 310 309 310 311 314 315 314 314 314 313 314 314 314 315 315 314
328 327 326 325 327 328 327 327 327 328 329 329 328 329 329 328 328 328 327 327 326 324 321 321 324 326 324 321 320 320 322 321 319 313 307 307 307 306 307 306 305 305 305 308 310 308 308 308 307 308 308 308 309 309 309 309 309 309 309 309 310 310 309 309 310 312 312 310 310 309 309 309 309 312 313 313 314 315 314 314 315 315 315 315 315
326 326 326 325 325 326 325 325 326 327 328 328 327 327 327 327 327 327 326 327 327 325 324 323 325 325 325 323 321 321 321 322 322 317 309 308 308 306 307 305 306 306 304 310 314 310 310 312 310 310 309 309 309 309 309 309 309 309 309 309 309 309 309 308 310 314 314 312 311 310 309 309 308 309 310 311 313 315 315 315 316 316 316 316 317
327 327 326 326 326 326 326 326 327 327 327 328 327 326 325 325 326 327 326 327 326 325 325 324 324 325 326 324 321 321 321 321 324 321 314 312 310 307 307 306 307 308 308 314 316 312 314 317 315 315 315 313 312 310 309 310 309 309 310 309 310 311 312 311 312 315 315 315 315 314 314 313 311 310 311 313 314 316 316 316 316 317 316 316 316
328 327 327 327 326 326 326 326 327 326 326 327 327 326 325 325 325 325 326 326 325 325 325 325 325 325 326 325 323 321 320 321 324 323 319 318 315 309 307 308 311 314 314 318 318 315 317 318 317 319 319 318 318 315 314 315 313 313 314 314 315 316 316 316 317 317 316 317 317 317 318 317 315 314 314 315 315 315 316 315 315 315 316 315 315
327 327 327 328 327 327 326 326 326 325 325 326 326 326 326 326 325 325 325 326 326 326 326 326 327 327 326 327 325 322 321 322 325 324 321 322 319 313 310 312 317 319 319 320 319 317 319 319 318 320 319 319 320 319 319 320 319 319 320 318 319 319 317 318 318 317 318 318 318 318 319 318 317 316 316 316 315 314 315 315 315 315 314 314 315
325 325 326 327 327 327 327 327 327 326 325 326 327 327 326 326 326 326 326 326 326 327 327 326 327 327 326 326 326 325 324 324 324 324 323 323 321 318 317 318 320 320 320 321 319 319 320 320 319 320 319 319 320 320 320 320 321 322 321 320 320 320 319 319 320 320 320 320 320 320 320 319 319 318 317 317 316 316 316 315 314 315 314 314 315
323 323 323 324 324 324 325 326 327 326 326 326 326 326 325 325 326 327 327 326 326 326 327 327 327 326 326 326 325 325 324 323 323 323 323 322 321 320 320 320 320 320 320 321 320 320 320 320 319 319 319 319 320 320 319 319 320 322 322 320 320 321 321 320 321 321 320 319 319 319 319 319 320 320 319 318 318 318 318 316 315 315 315 315 315
321 321 321 321 322 322 322 322 324 325 325 325 325 325 325 324 325 326 325 326 326 326 327 327 326 326 326 326 326 325 324 323 323 324 324 321 320 320 320 319 319 320 320 320 320 320 320 320 320 320 319 319 320 319 318 318 320 322 321 319 320 320 319 318 318 318 319 319 318 318 318 317 318 319 320 319 318 318 318 317 317 317 317 316 316
320 319 318 318 318 318 318 319 321 322 323 323 323 324 324 324 325 324 325 325 325 325 326 326 326 326 326 326 326 325 325 325 324 324 324 322 321 321 320 320 320 320 320 320 320 320 320 320 320 320 320 320 319 318 318 319 320 321 320 319 319 320 318 317 316 316 317 318 318 317 317 316 316 317 319 319 318 318 318 318 318 317 317 317 316
315 314 313 312 312 312 314 315 316 318 319 319 320 322 322 323 323 323 324 324 324 324 324 325 325 325 325 325 325 325 325 325 325 324 324 323 322 322 321 320 320 320 320 321 321 320 320 319 320 320 320 319 318 317 317 318 318 317 317 317 318 319 318 317 317 316 316 317 317 316 316 316 315 316 318 317 317 317 318 318 317 317 317 316 316
309 309 309 309 309 309 310 311 312 313 314 315 316 317 318 320 320 320 320 321 322 323 323 323 324 325 324 325 325 324 324 324 324 324 324 324 323 322 321 321 321 320 321 321 321 321 320 319 319 320 320 320 319 318 317 317 316 315 314 316 317 318 317 316 316 316 316 316 317 316 316 315 315 315 314 312 311 312 313 314 314 315 315 316 316
307 307 307 307 307 307 307 309 309 310 311 312 313 314 315 316 317 317 317 318 319 320 320 321 321 322 322 323 323 324 324 323 323 323 323 323 323 322 321 321 320 320 320 321 321 321 320 319 319 319 320 320 319 317 316 316 315 314 315 317 317 317 316 316 316 315 315 316 316 316 315 314 314 313 310 309 310 310 309 309 310 310 311 311 312
308 309 308 307 306 306 306 307 308 309 309 310 310 311 312 313 314 314 315 315 315 315 315 316 316 316 318 319 319 320 321 322 322 322 322 322 322 321 321 320 320 319 319 319 320 320 320 319 319 318 319 318 317 317 316 316 316 315 316 317 317 316 316 315 315 316 315 316 316 315 315 315 315 312 309 311 313 310 307 306 307 307 307 306 306
305 307 308 308 308 307 306 307 308 308 309 309 309 309 310 311 312 313 313 313 313 313 313 313 313 313 313 314 314 315 317 318 319 320 320 320 320 320 319 318 318 318 318 318 319 319 318 318 318 317 317 316 317 317 316 316 316 316 316 316 315 315 315 315 315 315 315 315 315 315 315 315 314 313 310 310 310 307 307 309 309 307 304 303 304
304 304 305 306 307 307 306 306 307 308 308 308 308 309 309 310 310 310 311 311 311 311 311 312 312 312 312 312 312 313 313 314 315 315 316 317 318 318 318 317 317 317 318 317 317 317 317 318 317 317 316 316 317 317 317 317 316 315 314 313 310 312 314 315 315 315 315 315 315 314 314 314 313 312 309 306 305 304 306 310 313 311 307 306 306
304 304 304 304 305 305 305 306 306 307 307 307 307 308 309 309 309 309 309 309 309 309 309 309 310 311 311 312 312 312 312 312 313 313 314 316 316 316 317 317 317 317 317 316 315 314 315 316 315 315 315 316 317 316 317 317 315 313 311 309 308 312 315 314 314 315 315 315 314 313 312 311 310 308 306 303 303 302 302 305 311 313 312 310 308
303 303 303 303 303 303 304 304 304 304 305 305 306 307 307 307 308 307 307 308 308 307 307 308 308 309 309 310 311 312 312 312 312 313 314 314 315 315 315 316 316 316 316 315 314 313 314 315 316 316 316 316 316 314 314 314 313 310 308 306 309 313 314 313 314 314 314 314 314 311 308 306 305 304 302 302 301 301 301 302 307 311 312 311 310
302 301 302 303 303 303 302 302 302 302 303 303 304 305 305 305 305 305 307 308 307 306 306 306 306 307 308 309 310 311 311 311 311 312 312 313 313 313 314 314 315 315 315 315 315 314 315 315 316 316 316 315 314 312 310 309 307 306 303 303 309 314 313 312 313 314 313 313 312 308 304 302 302 302 301 301 301 300 301 302 305 309 310 310 310
301 301 301 301 302 302 302 302 302 301 302 302 301 301 300 301 303 304 305 305 305 304 304 304 304 305 306 307 308 308 309 308 309 309 310 311 311 312 312 313 313 313 314 314 314 314 314 314 314 315 315 314 313 312 308 305 303 302 301 302 307 313 313 312 313 313 312 312 311 307 304 302 301 301 300 301 300 300 300 302 305 308 309 309 309
301 301 300 299 300 302 301 301 301 301 301 300 299 299 300 299 300 302 302 303 304 303 301 300 301 302 304 305 305 305 305 305 306 306 307 308 309 309 311 312 312 312 312 312 312 312 312 312 312 312 313 312 312 310 307 303 301 301 302 301 305 310 312 312 312 311 312 312 311 309 305 302 301 301 300 300 300 300 300 301 302 305 306 306 307
300 300 299 297 299 300 299 299 300 300 300 299 298 299 301 300 299 300 300 299 301 301 300 299 299 300 300 301 301 301 302 303 304 304 305 305 306 307 308 310 311 311 312 312 311 311 311 311 311 311 311 311 310 309 307 303 301 302 303 302 305 309 311 311 311 311 311 311 311 310 307 303 300 300 300 300 300 300 300 300 300 301 302 303 304
299 300 298 297 298 298 297 298 300 300 299 298 298 299 300 300 299 300 299 298 299 301 301 301 300 299 299 300 301 301 302 303 304 304 305 306 305 305 305 307 308 310 311 311 311 311 311 311 310 310 310 310 310 309 308 305 303 303 304 303 304 306 308 309 308 309 310 309 310 310 307 302 300 300 301 300 300 300 300 300 300 300 300 301 301
300 300 298 297 299 299 298 300 301 299 298 298 298 298 299 299 300 300 300 300 300 301 301 301 301 301 301 301 301 302 303 303 304 304 305 305 305 304 305 305 306 307 309 310 311 311 311 310 310 310 310 310 309 310 311 308 304 303 304 304 304 304 305 305 305 306 308 309 309 309 304 301 300 301 301 300 300 300 301 301 301 301 301 301 300
300 300 298 298 299 299 300 300 300 299 299 298 298 298 298 299 299 300 300 300 301 301 301 301 302 302 301 301 301 301 301 302 302 303 304 304 304 305 305 305 305 306 307 308 309 310 310 310 310 310 310 309 309 310 311 310 307 304 304 304 304 304 305 304 303 305 308 309 308 306 301 300 301 301 300 301 301 301 301 301 302 301 301 300 300
300 299 298 298 299 299 299 299 299 299 299 298 298 298 299 299 299 299 299 299 300 300 301 301 301 301 302 302 302 302 302 302 302 302 303 303 304 303 304 304 305 305 306 306 307 308 309 309 310 310 310 310 309 309 310 310 309 306 304 304 304 304 303 303 303 306 309 309 307 303 300 300 301 301 301 301 301 301 302 302 302 301 300 299 299
299 299 298 298 298 298 298 298 298 298 298 298 298 298 298 298 298 298 298 299 299 299 299 300 300 300 301 301 301 301 302 302 302 302 302 302 302 302 302 303 304 304 304 304 305 307 307 308 309 309 310 310 310 309 308 308 309 307 305 303 303 303 303 302 303 305 307 308 305 301 300 301 301 301 301 302 302 302 302 301 300 299 299 299 299
298 298 297 297 297 297 297 297 297 297 297 297 297 297 297 298 298 298 298 298 298 298 298 299 299 299 299 299 300 300 300 301 301 301 301 301 301 301 301 302 302 302 302 303 304 305 306 307 308 309 309 309 308 308 308 307 308 308 306 303 303 303 303 303 302 303 305 305 302 301 301 301 301 301 302 303 302 302 300 300 299 299 298 298 298
297 297 297 296 296 296 296 296 296 297 297 297 297 297 297 297 297 297 297 297 297 297 298 298 298 299 299 299 299 299 299 300 300 300 300 300 301 301 301 301 301 301 301 302 303 303 304 306 307 307 308 308 308 308 308 307 307 308 307 305 304 303 303 302 302 302 302 302 301 301 301 301 301 302 303 302 301 300 299 299 299 299 297 297 297
296 296 296 296 296 296 296 296 296 297 297 297 297 297 297 297 297 297 296 296 296 297 297 297 297 297 298 298 298 298 299 299 299 299 299 299 299 300 300 300 300 300 300 301 301 301 301 302 303 304 305 306 306 307 307 306 306 307 307 306 305 304 303 303 302 301 302 302 302 302 302 302 303 303 302 301 301 300 299 298 298 297 297 297 296
Wind_Speed
17 16 18 15 13 15 12 16 17 17 16 18 18 18 18 19 18 17 18 17 17 19 18 17 15 15 13 11 10 7 7 8 7 7 7 7 7 4 4 5 5 5 5 5 4 4 4 4 3 2 2 3 2 3 4 4 3 3 3 3 3 4 4 3 3 2 0 1 3 2 1 2 2 2 3 2 2 2 2 4 4 4 4 4 5
16 16 17 13 16 19 19 19 20 19 19 18 17 18 18 18 17 17 17 17 19 19 17 16 16 15 12 10 9 5 6 8 8 9 8 9 9 5 4 5 4 5 5 4 4 3 3 4 4 3 3 3 2 2 2 2 2 2 2 3 4 4 4 3 3 2 1 1 2 3 2 3 2 2 3 3 3 2 2 4 6 4 4 4 4
17 17 14 17 29 30 25 21 19 19 20 19 17 18 19 19 17 16 16 18 20 20 17 16 16 15 12 10 9 8 10 10 8 7 5 6 6 4 5 7 7 7 7 6 3 2 4 3 3 3 2 3 3 2 2 3 2 1 1 2 3 4 4 3 2 2 2 2 2 2 3 4 3 3 3 4 5 4 3 5 7 5 3 4 4
15 13 12 24 32 28 23 21 19 18 20 21 18 18 19 19 17 15 16 19 20 19 17 16 16 15 13 12 11 12 13 10 8 8 7 8 6 4 6 9 8 7 7 5 1 2 4 4 4 4 3 2 2 2 3 4 3 3 4 2 2 2 2 2 2 1 3 4 4 3 3 3 3 4 5 4 4 5 5 4 6 6 5 5 5
10 17 24 28 28 23 22 20 17 18 20 20 19 18 17 17 16 15 16 19 19 18 17 15 14 14 13 13 12 11 11 8 8 8 7 6 6 6 7 7 7 8 7 4 2 3 5 6 6 5 3 3 3 2 2 4 4 4 5 4 3 1 1 1 1 1 3 3 4 4 3 2 3 5 6 5 4 5 7 7 7 7 6 6 6
17 22 21 21 23 23 23 20 17 19 20 19 19 17 15 16 17 17 19 20 19 18 17 14 13 12 12 12 12 9 8 9 7 7 7 6 6 7 8 7 7 7 6 4 5 5 5 9 8 3 3 4 4 3 4 6 5 3 4 4 3 2 2 2 1 2 4 3 3 4 3 3 5 6 6 7 7 7 9 9 9 10 9 8 7
19 14 11 16 23 24 23 20 17 20 21 20 19 17 16 18 18 20 22 22 20 20 19 15 13 11 10 10 9 7 8 8 8 7 8 7 6 7 7 7 7 6 5 4 5 6 6 8 10 8 7 6 5 4 5 7 5 4 5 5 4 4 4 3 2 3 3 3 3 3 3 5 6 6 7 7 9 9 9 8 9 10 11 10 10
11 15 19 24 28 27 23 19 17 20 23 23 22 19 18 20 21 23 24 22 22 21 19 17 14 12 11 9 8 7 8 9 9 9 8 7 5 5 6 7 7 6 6 6 5 5 5 6 10 13 9 5 5 4 3 6 6 6 6 6 5 5 5 4 4 5 3 4 4 2 2 5 6 6 8 8 9 12 12 10 11 12 11 11 13
8 16 25 28 29 26 19 18 20 22 24 24 24 23 22 22 23 24 23 22 23 21 19 18 16 14 13 11 9 9 10 9 9 8 7 6 7 7 8 7 7 7 7 7 7 6 6 5 9 13 12 8 4 3 4 7 8 7 7 8 8 7 6 5 5 7 6 6 7 6 4 5 7 8 9 9 12 15 14 13 16 17 16 15 16
7 13 24 25 24 21 18 21 24 25 26 25 24 25 27 27 27 25 23 23 24 23 22 20 18 16 13 12 11 11 10 9 8 8 7 8 8 9 9 7 7 8 8 9 10 9 6 4 5 9 12 11 7 6 8 8 7 9 9 10 10 9 9 8 7 7 7 7 7 7 6 5 6 7 8 10 13 14 15 15 16 18 21 19 16
9 12 21 21 20 21 23 27 26 26 28 27 25 27 30 31 30 29 26 25 25 25 24 22 19 18 15 13 13 12 11 11 9 8 8 8 8 7 7 6 6 6 6 8 9 9 9 6 6 9 11 11 10 9 8 7 7 9 10 11 12 11 11 10 10 9 8 9 9 8 7 6 6 7 7 10 12 14 17 19 17 17 20 18 15
11 12 20 21 20 22 26 27 27 29 29 29 28 29 31 32 31 30 29 27 26 25 23 22 20 19 17 16 16 14 13 11 10 9 8 8 8 7 6 6 4 3 4 5 7 7 6 6 8 10 11 12 13 11 9 8 7 9 9 10 11 12 11 12 15 14 12 12 13 12 10 9 10 10 10 12 13 15 19 20 18 17 18 16 14
12 15 21 22 22 25 27 25 27 31 31 31 31 30 31 33 32 31 30 28 26 23 22 22 22 20 18 18 17 16 13 11 10 9 9 8 9 8 6 5 3 3 4 6 8 8 9 8 8 9 10 12 13 13 10 8 8 9 9 9 9 10 10 12 15 17 16 15 14 14 13 13 13 13 14 15 15 16 18 18 17 16 18 17 14
13 18 22 21 22 26 27 25 27 31 32 32 31 29 29 29 29 29 29 27 24 23 23 23 24 22 20 18 17 15 13 11 10 10 9 9 9 8 6 6 5 5 6 8 7 8 8 8 8 9 9 10 12 14 13 11 9 10 10 10 11 10 9 10 14 17 18 16 14 15 15 15 14 13 14 16 17 16 16 16 16 16 17 17 16
12 18 20 20 23 26 27 29 29 27 29 31 29 27 26 26 26 26 28 27 24 24 25 24 24 23 21 20 17 16 14 12 11 10 9 9 9 9 7 7 8 7 7 7 6 6 7 7 7 9 10 11 11 12 13 12 10 11 13 13 13 13 12 12 14 17 18 16 14 15 16 16 14 12 12 14 16 16 16 15 16 16 16 16 16
15 18 19 19 23 27 28 28 27 24 25 29 27 24 24 24 25 25 27 28 27 27 28 26 24 23 22 21 18 16 14 13 11 10 10 10 10 10 9 9 9 8 7 6 5 5 5 5 6 7 8 9 9 9 10 10 10 11 12 12 13 13 13 14 15 16 18 16 14 13 16 17 16 15 15 14 13 13 13 12 11 13 16 17 17
18 20 22 21 21 24 26 23 24 26 27 27 27 27 25 23 24 26 27 29 29 29 29 27 25 23 22 21 19 17 15 14 12 11 12 12 11 10 10 11 10 8 7 6 5 6 5 5 6 6 7 8 8 8 9 9 10 10 10 11 12 12 12 13 14 15 16 15 13 13 14 15 14 15 17 16 14 12 9 8 7 8 11 15 19
17 17 20 20 20 22 23 23 25 29 30 29 28 29 29 25 24 27 30 31 30 30 30 28 26 24 22 21 20 18 16 14 12 12 13 13 13 12 12 12 10 7 7 6 6 6 6 6 7 7 8 8 9 9 10 11 11 12 13 13 13 13 13 14 13 15 16 16 15 14 14 14 13 15 17 16 15 11 7 6 6 6 6 9 18
16 14 15 18 20 19 19 23 24 25 28 29 28 27 28 28 25 25 29 30 30 31 31 28 26 25 22 20 19 18 17 15 14 13 13 14 14 14 14 13 10 8 9 8 7 7 7 7 8 8 8 8 9 10 11 12 12 12 13 14 14 14 14 15 14 14 15 15 16 16 16 15 14 14 15 14 13 11 8 5 4 7 9 8 16
15 13 15 18 17 15 16 18 18 20 24 27 26 24 25 27 26 26 27 28 30 32 30 27 26 25 22 21 19 17 16 16 14 13 13 14 15 15 15 14 11 10 10 9 8 7 7 8 8 8 8 8 9 10 10 11 11 11 12 13 13 11 12 14 13 12 12 12 13 14 15 14 13 13 13 12 13 12 10 7 5 8 10 9 11
17 15 16 16 15 16 18 16 15 18 21 22 22 22 23 24 24 23 24 25 28 28 28 26 25 24 23 21 19 17 16 15 13 12 12 13 14 16 16 15 13 13 12 11 10 8 8 8 8 8 8 8 9 9 9 9 9 10 10 11 10 8 9 10 10 10 10 10 9 9 10 11 11 12 10 9 9 8 9 9 8 8 9 9 6
18 17 15 14 14 16 18 17 17 18 18 19 20 20 21 22 22 21 20 22 23 25 27 26 23 22 23 22 20 18 17 16 14 13 14 14 16 17 18 17 16 15 14 12 11 10 9 9 9 9 8 8 8 8 8 7 7 7 7 8 7 5 5 6 6 6 6 6 5 4 6 7 8 11 11 8 6 7 9 10 10 10 10 8 4
18 17 15 14 14 16 17 17 17 17 16 17 18 18 18 18 20 20 19 19 20 22 25 24 20 20 22 22 22 21 19 17 16 15 15 16 17 18 18 18 16 15 15 13 11 12 11 10 10 9 9 9 9 8 8 7 6 6 5 5 4 3 3 3 3 4 2 2 2 1 2 3 5 8 9 7 9 10 8 9 10 10 11 12 9
16 16 16 15 15 15 15 14 14 14 15 15 16 17 16 15 15 16 17 17 18 20 22 22 20 20 21 22 23 22 20 18 17 17 17 18 18 17 16 16 16 15 15 13 11 11 11 10 10 10 9 10 9 9 8 7 7 6 5 5 4 3 2 3 2 3 2 3 2 3 3 2 3 5 5 5 7 8 5 5 8 6 7 10 12
15 15 16 14 13 12 12 12 11 12 13 13 13 14 15 15 15 15 15 16 18 20 21 21 20 20 21 22 23 24 22 21 20 19 19 19 18 17 17 16 15 14 13 12 11 11 11 10 10 9 9 9 9 9 9 8 8 7 6 6 6 5 5 5 4 5 5 4 3 3 3 3 4 4 3 5 6 7 7 6 7 5 6 7 8
16 15 14 12 11 10 10 11 10 10 11 11 11 12 14 15 15 15 15 15 16 18 18 18 18 18 20 21 24 26 26 23 21 20 21 21 18 17 18 16 14 12 12 11 11 11 11 11 10 10 9 8 8 8 7 8 8 7 7 7 7 7 6 5 6 6 5 5 6 4 5 6 4 3 5 6 7 8 9 9 9 7 8 6 4
17 16 15 13 12 11 10 10 9 9 9 9 11 12 13 14 14 15 15 15 15 15 15 15 15 16 18 20 23 26 25 22 21 21 21 20 18 16 16 15 14 12 12 13 13 12 12 11 10 9 9 8 7 8 8 9 8 7 7 8 8 9 7 6 7 6 5 6 8 6 7 8 5 5 7 8 7 7 7 8 8 8 8 6 3
17 17 16 14 13 12 11 11 10 9 9 8 9 10 11 12 13 14 13 14 15 15 15 15 14 14 15 17 19 21 21 20 20 22 21 18 16 14 13 12 12 12 12 14 13 12 12 13 11 10 10 10 11 13 13 11 10 10 10 10 10 10 9 9 9 8 7 9 8 8 9 8 6 6 8 8 7 7 7 7 9 9 10 10 8
18 17 17 15 14 12 11 11 9 8 8 8 7 8 9 9 10 12 12 13 14 15 14 13 12 12 13 14 15 15 15 16 17 20 20 17 15 16 15 13 13 13 13 14 13 12 12 13 12 12 14 14 16 17 14 10 9 11 11 11 11 12 11 10 10 11 12 12 11 12 11 9 8 9 9 8 7 6 6 8 10 10 11 12 10
18 18 18 17 16 14 12 11 8 7 8 7 6 7 8 6 5 7 8 9 9 9 9 8 7 8 9 10 11 12 13 14 15 17 17 15 16 18 19 17 16 16 16 16 15 15 14 14 15 16 18 18 17 16 15 12 12 12 13 13 14 15 14 12 13 15 16 15 15 15 14 12 11 11 10 9 9 7 7 9 10 10 10 9 8
19 19 20 20 20 19 17 14 10 8 8 9 8 8 8 7 5 4 5 6 5 5 6 6 5 5 6 7 8 10 13 14 15 14 13 13 15 18 20 20 19 18 18 18 18 18 17 18 19 19 19 18 17 16 15 15 15 14 14 15 17 17 17 17 17 17 18 18 17 17 17 14 12 11 11 11 10 8 8 9 10 10 10 8 7
22 22 22 22 22 21 21 20 17 13 11 11 10 9 7 7 7 7 7 6 6 5 5 5 4 4 4 5 5 7 11 12 12 11 10 10 11 14 17 19 19 19 19 19 20 21 21 21 22 21 20 19 17 17 17 18 19 18 16 16 18 20 19 19 18 17 17 17 15 14 16 14 11 9 9 9 8 7 8 10 9 9 10 10 8
27 25 23 23 23 22 21 20 20 19 17 15 13 11 10 8 9 11 11 10 9 7 5 6 5 5 4 4 5 6 7 7 7 6 7 7 8 10 12 14 16 19 22 23 23 23 23 23 23 22 20 17 15 16 17 18 19 19 17 16 19 21 19 17 16 14 11 12 10 9 11 11 9 8 7 7 6 6 6 7 8 9 10 10 9
26 25 24 23 22 22 22 20 18 18 18 17 15 13 12 9 9 11 11 10 10 9 8 8 7 8 7 5 4 5 5 5 5 4 4 5 5 6 8 9 11 17 21 23 24 24 24 24 24 22 19 17 16 17 17 17 17 17 17 16 17 17 13 8 7 5 4 6 7 6 7 7 7 7 7 6 5 5 5 5 6 7 8 9 10
23 20 19 19 20 21 21 20 18 17 18 19 19 18 17 13 10 10 10 10 10 10 10 10 9 10 10 8 7 6 5 4 3 3 3 4 4 5 8 9 10 12 15 17 19 21 22 21 21 21 21 20 20 19 19 19 19 17 15 13 12 10 7 6 6 5 6 8 8 7 5 5 6 7 6 6 5 5 5 5 6 7 8 9 9
19 16 13 12 12 14 16 17 16 15 16 18 20 20 20 19 15 12 10 10 11 10 10 10 10 11 10 9 9 8 7 6 5 4 3 0 2 4 6 9 10 11 12 14 14 16 17 18 19 21 21 21 19 18 19 19 17 15 13 11 10 9 9 7 6 7 8 8 9 8 7 8 8 7 5 5 6 6 5 6 8 10 10 10 10
16 14 12 10 6 5 7 8 8 9 8 11 14 16 17 19 19 16 13 13 13 13 12 12 11 11 10 8 8 7 6 5 5 4 3 2 2 2 3 5 6 8 9 11 11 12 13 15 17 18 19 18 17 16 16 16 14 13 12 12 11 10 8 7 9 10 11 11 12 13 12 12 10 8 6 5 5 6 6 7 8 10 12 11 10
12 12 13 12 10 9 7 5 5 5 4 5 7 8 8 9 12 14 11 10 11 13 12 12 12 12 11 9 7 7 6 5 5 5 2 1 2 3 5 5 5 5 7 8 8 9 10 11 12 13 15 15 15 14 14 14 15 14 14 13 12 10 9 11 13 14 14 14 13 14 14 12 10 7 7 6 6 6 6 7 8 8 10 12 12
13 13 13 13 13 13 13 11 11 10 8 7 6 5 5 4 6 10 9 5 4 7 8 7 8 9 10 9 7 5 2 2 3 4 3 2 1 2 4 7 7 5 5 6 7 7 7 8 9 10 12 13 12 11 13 15 15 15 15 15 14 12 11 14 14 14 15 15 14 14 13 11 10 8 7 7 7 7 7 8 8 9 10 14 15
10 9 9 9 8 9 9 10 10 11 10 10 9 7 6 6 5 8 9 7 6 7 7 6 7 8 9 8 6 5 5 3 2 2 2 2 2 2 2 5 8 7 6 8 8 7 7 8 8 10 13 14 13 11 12 14 15 15 15 16 17 13 11 15 15 13 15 15 14 14 13 10 9 8 7 8 7 7 8 9 10 11 13 14 16
9 8 8 7 6 6 6 7 7 7 7 7 8 7 7 7 6 5 6 8 9 9 9 9 9 8 7 8 8 9 11 12 10 9 8 8 7 7 5 5 7 8 9 10 10 10 11 10 10 13 16 18 16 14 13 14 15 16 16 18 19 14 10 15 17 14 15 15 12 11 10 8 7 8 8 8 7 7 8 9 10 12 14 14 16
8 6 5 6 7 5 5 6 6 6 5 5 7 7 7 8 7 5 6 8 10 13 14 13 11 9 9 11 12 14 16 17 16 15 14 13 13 12 9 7 8 9 11 11 11 11 12 12 13 15 18 18 17 17 15 15 17 18 17 18 20 16 12 14 16 14 14 15 11 9 8 6 6 7 7 6 7 7 7 9 11 13 15 15 16
7 5 5 5 6 5 6 6 6 6 6 7 7 7 7 8 8 9 10 10 11 13 14 14 14 14 15 16 16 17 17 18 18 18 17 16 16 16 14 12 10 10 11 13 13 12 12 14 15 16 17 18 18 18 16 16 18 19 18 19 21 18 15 15 15 15 16 16 13 11 9 6 5 6 5 5 6 7 8 9 10 12 14 15 16
6 4 5 6 5 6 7 6 5 6 8 9 8 7 7 9 10 11 13 13 12 12 13 14 15 16 16 15 14 14 14 15 15 16 16 16 18 19 19 18 16 14 14 15 16 15 15 16 17 17 17 16 17 18 18 18 19 20 19 19 19 19 18 17 15 15 16 16 15 13 11 8 6 6 5 6 7 8 9 10 11 11 12 13 14
5 3 5 6 5 5 6 5 5 7 10 10 10 9 9 9 10 11 12 12 12 13 14 15 14 14 15 14 14 13 13 13 14 15 16 17 18 18 19 19 19 18 18 18 18 18 18 19 20 21 21 19 19 21 21 21 22 21 20 19 18 18 18 17 16 17 17 16 16 14 12 9 8 7 7 7 7 9 10 11 11 12 11 11 9
4 3 5 6 5 4 4 4 5 8 9 9 10 10 10 10 10 10 10 10 11 12 13 14 14 15 16 16 16 16 15 15 15 15 16 17 17 17 19 19 19 19 20 20 21 21 21 22 22 23 23 23 22 23 23 24 24 24 22 20 19 19 17 16 17 18 18 16 16 14 12 9 8 8 7 7 8 9 10 11 12 11 9 7 6
3 3 5 6 5 4 5 5 7 8 9 9 10 10 10 11 11 12 12 12 12 12 13 13 14 14 15 15 15 16 16 16 16 16 16 17 16 17 18 19 19 19 20 21 22 22 23 25 24 23 24 26 26 27 26 25 24 25 25 23 22 21 18 17 19 20 19 18 16 14 11 10 10 9 8 8 9 10 10 11 10 8 5 5 6
3 3 4 5 5 5 5 6 7 8 8 8 8 8 8 9 10 10 11 11 12 13 14 14 15 15 15 15 16 17 18 18 17 17 18 18 18 18 18 18 18 18 19 20 21 20 21 23 24 23 24 26 27 28 27 25 24 26 28 26 24 21 19 18 18 20 20 19 17 14 11 11 11 10 10 10 10 10 10 9 6 3 3 5 8
4 4 5 5 5 5 6 6 6 7 7 7 7 7 7 8 9 9 10 10 11 11 12 13 14 15 15 16 16 17 18 18 18 18 18 19 19 19 20 21 21 21 21 21 19 17 16 17 18 20 22 25 26 26 26 26 25 25 27 28 24 20 18 18 19 20 20 19 16 14 13 13 12 12 12 11 9 8 7 6 4 3 4 5 7
5 5 5 5 5 5 5 5 5 5 5 6 6 7 7 8 10 10 10 11 12 12 12 12 12 12 13 14 14 14 14 15 16 17 19 20 20 19 20 21 22 23 24 24 22 21 19 16 15 15 16 19 22 25 26 26 25 24 26 29 26 20 18 19 19 20 20 19 16 15 15 14 13 13 12 9 7 7 7 7 7 6 5 7 9
5 5 5 5 5 5 5 5 5 5 5 6 6 7 8 8 9 10 11 11 12 13 13 13 13 12 14 15 15 14 15 16 15 14 16 19 20 20 21 22 21 20 21 23 26 28 28 24 22 20 18 17 19 21 21 21 24 27 29 28 24 22 22 23 23 22 22 21 19 18 17 16 15 13 9 7 9 10 8 8 8 7 6 7 8
Wind_Direction
197 200 207 203 183 177 148 120 150 163 149 150 149 145 145 144 144 144 149 151 147 144 136 130 126 117 117 129 138 152 149 138 133 127 123 116 110 109 114 111 112 113 107 106 108 105 100 97 114 148 173 174 184 199 209 216 209 204 206 200 198 216 226 230 224 213 185 174 174 178 237 249 223 110 99 133 193 202 179 180 173 155 150 160 175
196 193 202 177 130 131 129 126 148 152 142 146 144 141 144 147 150 149 151 151 143 138 133 129 124 116 118 127 131 141 140 141 155 162 165 156 151 158 127 107 99 100 94 93 103 105 98 97 94 90 100 102 124 172 186 203 212 223 230 212 198 207 213 212 227 221 177 190 181 171 204 226 211 127 107 114 127 125 130 155 148 148 161 165 174
196 191 190 136 108 109 119 133 151 151 138 140 143 144 147 152 156 155 153 149 142 137 135 133 126 120 123 132 140 146 151 160 160 146 140 137 143 161 130 102 77 65 61 72 95 84 70 68 68 75 82 70 78 122 108 94 87 66 166 210 203 207 212 211 238 225 154 151 171 178 203 203 171 156 152 117 104 106 122 135 122 125 168 167 165
195 172 130 107 104 110 126 140 155 153 138 139 147 152 153 156 160 159 153 148 144 140 137 135 128 129 142 154 164 169 171 174 149 125 117 115 121 132 124 109 100 98 88 87 127 112 91 67 36 44 67 65 61 75 73 75 76 75 70 82 150 192 218 215 260 229 141 137 148 158 176 176 143 145 154 124 103 109 107 107 110 121 142 152 160
166 109 92 96 105 122 139 149 157 148 139 143 147 154 158 155 156 158 155 151 147 140 140 143 138 144 160 167 178 188 179 160 129 115 108 113 119 109 109 107 110 123 120 112 98 113 129 106 61 29 52 86 78 71 62 61 62 76 75 73 93 106 151 181 263 211 171 161 146 146 162 171 131 139 139 116 103 98 88 89 105 115 126 137 143
112 101 91 99 114 129 140 144 145 139 139 144 146 152 156 153 155 156 157 155 149 144 147 152 148 151 170 179 185 183 152 135 123 113 112 122 119 111 123 122 114 124 128 129 120 116 130 125 112 71 44 73 88 112 104 77 55 54 74 82 89 78 96 126 104 135 176 185 166 165 157 143 134 137 134 116 111 103 92 94 98 100 105 106 103
102 125 142 133 125 126 132 137 143 144 146 149 150 154 152 153 157 156 159 158 153 153 153 156 150 147 172 184 174 151 136 145 144 139 155 166 157 145 145 132 122 123 104 88 104 113 125 137 128 98 57 39 43 69 104 103 94 80 71 71 85 78 73 91 107 115 149 157 164 190 150 140 140 132 134 130 119 109 102 99 98 97 98 92 88
121 165 159 140 126 122 130 144 157 156 154 158 159 157 155 157 159 160 162 159 158 157 153 156 151 149 168 164 146 151 166 172 162 163 182 177 146 119 108 108 110 103 95 90 89 98 102 117 119 107 90 59 42 42 92 106 102 95 82 75 85 87 78 93 117 114 129 129 117 115 145 173 174 147 138 136 126 118 107 98 95 93 96 98 96
155 162 143 132 127 129 139 153 164 165 162 165 164 158 158 158 157 159 161 159 159 156 154 160 158 157 160 147 154 186 188 178 168 172 172 139 115 117 123 131 133 128 126 119 100 81 70 84 120 127 123 119 105 53 72 95 97 91 89 90 95 100 97 104 117 116 121 119 111 115 132 162 169 155 145 136 131 127 117 105 98 93 95 97 93
167 149 137 138 137 141 156 158 163 171 171 172 169 163 163 161 159 162 164 163 160 158 161 163 161 160 154 153 181 194 179 166 168 171 160 143 146 158 157 152 152 151 147 138 126 123 129 122 125 135 131 125 110 70 65 83 98 94 91 95 98 99 102 109 118 119 119 113 113 125 129 137 154 155 150 140 135 133 125 117 108 99 99 98 92
182 144 137 152 148 146 162 164 165 170 173 177 175 171 170 167 168 171 170 168 164 164 164 162 162 160 156 171 189 183 168 167 174 173 161 156 157 155 152 153 164 171 166 160 152 152 165 152 106 116 127 123 113 101 91 89 96 99 93 93 95 93 96 103 107 109 118 115 107 112 115 113 124 132 145 148 141 134 126 121 116 108 106 106 103
195 149 138 149 148 152 165 167 167 168 172 178 179 177 176 173 173 175 174 172 167 165 165 163 163 159 162 181 186 176 173 175 176 168 156 153 145 141 157 168 173 177 162 151 142 135 135 122 114 122 127 125 119 113 107 100 101 104 98 92 95 96 99 103 103 102 102 100 94 97 105 101 103 114 131 142 141 135 128 122 121 118 115 117 114
175 145 139 136 138 151 161 166 170 172 174 179 181 181 179 177 176 174 174 171 167 167 169 167 162 159 169 184 183 176 176 175 168 159 154 153 150 156 170 165 163 167 144 130 129 128 120 114 121 129 131 132 126 113 102 97 104 111 108 104 105 106 109 111 110 105 98 94 90 89 92 95 104 112 121 131 136 133 127 123 126 125 120 121 121
149 138 138 132 139 152 163 174 179 180 180 180 181 183 182 182 178 175 174 172 169 171 174 173 168 166 171 179 179 175 171 166 160 155 157 161 160 163 166 169 184 180 149 137 136 139 134 124 117 114 120 130 131 125 118 111 109 112 110 109 109 108 108 111 115 114 109 106 107 103 96 91 97 103 113 128 133 129 126 128 134 133 127 127 123
147 144 142 138 148 159 169 178 178 179 180 178 179 181 182 184 180 177 178 177 176 178 179 179 177 175 173 172 174 175 170 161 158 159 162 167 165 160 168 191 198 185 165 160 155 144 134 128 119 111 111 115 120 127 128 123 115 110 108 108 109 107 102 104 113 117 112 108 111 117 116 109 103 100 107 121 128 131 133 133 133 133 138 141 127
132 141 151 151 157 164 171 176 174 172 174 174 176 180 183 186 185 184 184 183 182 183 184 181 179 181 177 169 168 172 167 156 160 171 171 170 166 163 180 199 200 192 185 180 166 147 138 136 131 121 115 113 113 116 120 119 113 110 110 110 110 108 105 104 110 115 111 105 105 112 121 122 119 119 121 121 124 130 131 129 131 135 141 143 129
128 138 150 155 162 169 172 173 175 174 174 173 175 178 181 184 186 188 189 189 188 186 185 182 181 183 179 168 164 166 159 153 168 183 176 170 168 171 185 197 204 202 193 189 176 156 147 137 125 122 119 112 108 106 107 109 109 109 108 107 108 108 109 108 110 113 109 105 106 109 115 119 122 129 131 129 128 130 130 117 123 143 145 143 136
122 132 140 153 169 174 173 171 173 173 173 175 178 180 181 182 188 194 194 193 192 189 188 186 183 182 177 168 165 164 158 158 178 189 179 173 173 176 189 200 205 198 184 187 179 158 145 131 122 121 119 113 109 107 103 102 103 105 104 104 104 103 104 104 105 108 105 101 100 98 98 101 111 127 129 125 124 130 139 112 101 119 116 137 148
109 123 143 163 171 169 167 167 167 166 167 173 179 182 181 182 187 194 193 191 192 191 189 187 184 180 175 169 168 168 167 172 185 190 184 182 180 179 191 203 203 189 181 179 170 157 144 132 126 121 116 114 114 110 107 104 100 101 103 101 101 100 100 100 98 100 101 103 102 96 91 86 90 106 114 117 117 115 126 115 94 107 87 105 155
112 134 155 162 163 155 153 155 157 160 163 166 173 179 183 185 187 192 195 195 194 191 186 184 182 180 177 174 173 174 178 184 191 192 188 190 192 189 191 198 194 186 183 175 168 163 149 140 136 131 126 122 120 118 115 114 109 106 107 103 99 101 104 102 101 101 99 102 105 102 100 96 93 93 92 102 110 106 109 100 89 108 84 81 140
128 143 153 152 149 142 137 135 135 144 151 154 161 171 180 186 186 189 194 194 192 190 187 184 182 181 181 181 179 177 181 188 191 192 190 192 198 195 192 193 191 186 183 178 174 169 161 157 150 145 142 136 133 131 128 127 123 120 120 111 102 102 110 108 110 115 110 107 109 109 111 111 110 105 91 89 94 87 94 94 88 105 90 74 107
134 139 147 145 138 132 129 129 129 134 141 150 159 164 169 177 178 179 182 184 187 190 190 186 182 183 186 188 186 183 186 190 187 188 191 193 198 197 192 191 189 185 182 179 178 176 174 172 166 164 162 156 154 151 148 148 137 133 136 129 124 124 126 124 120 120 122 124 120 112 117 117 115 117 119 122 113 95 106 113 105 110 111 100 98
141 141 145 141 132 130 127 123 125 129 133 146 158 156 155 163 167 168 172 175 178 182 184 186 189 190 190 193 193 190 191 194 189 189 193 198 202 200 195 191 186 185 183 179 182 184 178 178 179 179 177 174 175 176 175 172 162 161 165 159 161 156 145 151 122 106 129 166 157 145 136 136 137 138 145 155 137 117 119 135 131 132 136 129 123
130 128 131 133 130 129 126 119 122 129 129 136 148 152 154 159 161 163 166 169 173 177 182 188 194 195 193 194 193 191 193 196 192 189 193 203 207 202 197 191 185 186 183 178 188 190 179 180 187 187 189 190 190 192 192 189 190 193 194 202 217 220 218 220 166 148 221 265 255 258 261 210 194 189 178 173 153 128 110 139 146 154 165 148 137
119 119 123 128 126 125 124 120 118 124 132 138 144 149 156 159 161 165 166 168 175 180 184 186 190 195 196 194 193 194 197 199 197 192 192 202 209 202 195 191 188 189 183 179 194 193 180 186 190 187 195 198 198 203 203 202 210 214 217 233 244 243 241 236 213 207 226 249 252 258 268 255 242 230 174 158 165 144 129 147 156 160 174 172 162
113 115 118 120 121 122 123 122 120 120 130 138 136 140 151 156 160 163 161 163 171 176 180 182 184 190 193 192 195 200 202 201 199 191 190 200 208 202 195 192 192 193 183 184 200 195 187 197 196 188 196 203 208 216 211 210 224 226 223 238 244 243 244 229 228 242 240 246 252 235 232 250 256 216 180 183 188 169 162 173 174 169 173 177 170
107 106 108 110 112 113 112 116 120 121 127 134 134 139 150 156 159 160 159 161 165 170 175 177 178 186 192 194 198 204 204 203 199 188 186 200 206 201 196 192 192 194 188 193 204 197 192 201 199 194 204 212 221 230 218 213 224 229 229 237 234 234 246 240 238 252 253 257 265 247 233 243 241 211 207 217 222 216 210 205 197 199 203 208 217
97 96 97 98 104 110 110 108 109 116 124 125 130 143 154 158 158 159 165 173 175 177 181 182 185 193 199 199 200 201 198 199 198 188 184 190 191 188 192 192 192 195 197 204 207 199 201 206 202 204 214 218 221 225 222 214 213 221 236 248 246 246 257 252 241 242 238 240 246 238 230 225 214 217 228 237 243 249 253 235 217 217 223 235 259
90 89 87 85 90 98 99 98 98 106 117 121 134 149 156 164 164 163 175 188 187 183 181 182 192 202 204 199 194 195 196 198 200 196 192 189 181 179 184 190 198 203 207 213 209 205 215 217 213 218 225 225 224 227 232 229 218 226 243 255 255 251 248 243 243 249 251 252 253 248 241 228 215 221 234 254 267 263 260 248 231 229 235 243 254
85 83 76 72 74 74 75 82 90 94 93 103 122 128 131 150 167 163 170 179 179 174 169 170 187 200 201 192 181 184 195 200 203 204 202 198 191 188 188 189 196 202 210 216 212 210 220 223 222 225 227 229 231 236 241 236 226 234 250 260 261 256 256 264 273 271 265 263 262 255 249 244 235 232 241 261 268 256 250 248 245 248 254 259 260
83 77 67 63 62 59 59 63 72 80 71 67 75 87 104 127 138 128 129 133 139 144 144 152 173 185 185 178 167 173 187 195 200 200 200 202 201 200 202 203 201 203 211 219 218 217 220 225 229 230 232 234 236 238 239 234 231 236 246 258 265 265 271 279 284 283 275 269 265 255 248 243 235 236 245 256 256 244 233 235 242 254 260 263 267
71 66 59 55 54 55 58 60 62 64 54 45 50 59 74 96 100 90 90 98 111 124 124 127 142 152 156 157 148 160 179 188 194 196 202 212 214 212 217 219 214 212 216 220 221 220 221 227 233 234 237 242 243 244 245 244 246 246 246 255 262 264 271 276 277 281 278 269 264 255 245 234 220 221 231 238 239 228 223 227 231 241 251 256 261
61 61 58 54 52 52 55 60 66 67 62 57 54 46 43 52 60 59 58 63 72 80 83 84 87 94 111 123 123 134 156 170 181 194 199 206 216 221 225 228 224 220 222 224 227 227 227 233 240 240 241 245 249 254 256 253 252 252 252 256 260 263 269 271 270 272 266 255 249 238 226 215 200 202 211 216 220 215 215 225 232 239 247 252 256
61 59 56 51 49 48 49 53 59 63 68 76 77 68 58 52 52 55 56 58 65 70 70 71 66 61 65 74 95 115 126 141 160 180 184 182 200 215 216 222 224 223 226 230 233 236 236 239 244 246 246 249 254 258 260 261 262 263 262 261 261 261 258 248 244 241 210 204 200 184 185 189 187 201 206 201 206 213 214 225 238 247 251 254 258
66 63 58 50 44 43 46 48 49 53 61 67 69 68 69 68 63 65 66 66 71 69 61 61 61 57 58 53 48 57 63 72 110 141 160 173 183 198 208 217 223 225 229 233 235 238 240 242 247 252 254 257 260 261 263 267 272 270 264 257 250 238 211 184 182 170 152 158 162 152 157 178 192 204 200 186 199 229 254 260 258 258 259 264 269
75 79 80 71 51 41 45 49 51 54 56 54 51 55 67 71 67 68 71 69 70 68 56 52 54 53 54 53 49 50 51 47 50 52 37 32 192 204 220 227 231 232 233 235 238 242 246 247 251 257 260 259 259 262 266 269 269 260 248 238 225 202 184 176 172 164 163 170 167 157 171 197 208 219 217 204 215 234 251 265 274 281 280 277 277
72 75 77 81 84 64 56 63 68 69 66 55 50 55 65 62 53 52 64 70 65 60 50 42 40 40 39 43 49 50 54 60 55 42 19 345 338 318 270 251 242 236 234 239 245 249 251 251 251 257 263 262 259 260 261 258 248 234 225 222 212 191 180 184 183 179 184 189 179 170 183 203 211 222 232 229 232 238 231 230 251 277 284 280 278
60 58 56 55 52 42 36 41 47 53 67 63 58 67 75 63 49 46 53 67 65 55 45 37 32 31 26 24 30 33 45 64 48 24 17 36 10 344 320 303 283 258 250 257 261 256 255 256 254 252 255 257 255 250 241 234 225 219 222 220 202 179 183 201 204 200 200 200 194 186 193 208 214 221 234 238 245 253 245 231 228 245 266 273 278
58 52 49 49 47 40 33 31 27 20 20 22 27 46 54 37 39 37 24 10 22 27 24 23 25 25 21 16 14 11 21 106 63 23 29 65 33 337 318 303 292 290 282 274 273 264 252 247 239 230 229 234 236 226 219 222 222 222 226 215 189 179 198 207 209 215 212 208 207 204 205 216 224 231 243 248 251 254 247 237 226 219 235 257 268
72 67 61 56 54 51 42 35 31 26 21 13 3 13 20 1 8 29 13 343 334 348 350 352 4 9 2 352 345 331 304 270 273 307 302 273 249 250 301 289 280 283 280 267 261 247 232 231 226 214 211 217 222 216 215 223 225 222 219 203 187 187 204 201 202 220 223 215 214 214 214 218 224 233 244 246 250 252 241 235 231 222 225 240 250
81 85 81 68 58 54 46 38 32 29 28 16 358 354 350 335 336 358 348 331 322 311 306 318 338 345 333 320 316 311 306 303 300 292 280 271 259 246 245 268 274 268 259 257 255 242 234 237 230 213 208 216 228 234 229 223 216 208 202 194 190 192 199 199 203 218 227 226 222 214 212 218 226 238 247 245 246 248 239 234 234 232 234 240 246
66 54 50 56 51 34 24 26 18 10 4 349 342 345 336 323 320 313 307 311 310 302 303 311 312 301 290 290 294 299 303 305 304 296 287 280 274 262 250 253 265 262 253 253 255 249 242 237 229 220 217 223 237 244 237 220 208 203 198 195 197 197 194 197 201 208 220 228 222 204 206 225 230 231 239 246 249 252 249 242 237 237 242 247 251
64 31 351 23 38 360 342 359 1 352 343 330 329 337 326 310 306 302 297 297 300 303 306 305 298 292 291 291 293 297 300 300 300 299 296 289 281 273 262 252 252 258 259 255 254 251 246 240 235 234 232 233 239 244 237 220 208 204 201 198 199 200 196 192 195 203 217 226 220 210 219 239 233 224 233 246 253 258 258 254 249 248 250 252 254
55 24 332 357 17 338 330 347 344 321 312 309 315 319 311 306 306 303 300 299 302 304 301 298 297 296 295 295 297 298 296 293 291 293 292 288 284 281 274 265 258 258 261 261 258 254 251 246 241 240 240 236 235 240 239 228 214 207 205 203 203 204 203 199 202 212 222 227 225 222 229 234 224 218 228 239 249 255 256 257 258 257 257 260 262
45 10 329 349 8 347 339 348 335 313 304 303 305 303 298 301 305 305 308 309 306 301 299 298 298 295 290 287 284 280 278 278 279 279 279 278 280 281 278 273 268 263 261 262 260 256 255 253 247 244 243 238 234 236 236 228 219 216 215 213 211 211 210 210 212 217 222 224 224 224 226 222 213 217 229 238 247 253 258 262 265 268 272 275 272
52 8 335 346 359 352 345 340 331 324 316 311 310 306 303 304 302 299 303 307 306 301 298 296 295 295 293 290 286 282 279 275 271 271 273 275 276 276 275 273 270 266 263 263 262 260 258 256 253 249 245 240 234 231 228 225 224 224 223 220 215 212 213 213 213 214 218 219 218 218 217 214 213 221 231 242 248 255 263 268 272 279 283 276 261
49 15 353 356 356 348 342 336 331 330 329 327 325 325 322 319 314 307 302 300 299 296 293 292 292 293 294 293 292 289 285 281 276 272 271 270 270 272 274 274 271 269 266 262 261 262 261 259 258 257 253 250 246 241 239 237 232 226 225 223 218 214 213 208 205 208 212 214 216 215 212 211 219 227 234 241 247 255 264 271 277 285 280 260 261
35 19 5 360 351 340 333 330 327 325 326 325 318 314 314 316 317 313 306 304 301 297 297 297 295 290 288 289 290 286 281 280 280 278 275 273 271 270 271 270 270 273 275 269 264 263 262 259 256 253 252 252 251 248 248 247 238 230 227 221 214 211 211 208 209 212 213 215 218 219 215 216 225 234 237 240 246 255 263 265 267 263 246 264 285
25 16 8 1 355 343 332 330 328 326 327 325 314 306 309 312 309 298 284 281 282 282 287 294 296 296 297 297 294 291 289 287 285 282 279 278 276 273 271 268 266 267 269 270 269 267 265 259 251 247 249 251 250 249 251 249 245 240 231 221 217 219 221 221 222 220 216 217 221 221 221 225 231 235 237 242 249 252 250 244 240 229 222 243 272
12 5 1 358 356 352 347 346 344 343 346 345 336 330 328 325 322 315 305 297 292 285 284 290 290 285 286 290 289 284 284 285 284 283 283 281 277 273 271 272 272 268 265 267 271 273 272 267 257 250 249 249 247 249 251 248 246 243 232 223 222 223 223 225 226 222 220 223 227 227 228 230 232 235 238 240 235 226 221 231 251 257 235 227 242
11 6 4 5 6 10 14 11 4 0 356 347 342 339 335 328 327 326 321 316 311 305 300 301 297 285 279 284 288 283 274 269 269 277 287 289 285 279 274 275 279 281 276 274 276 277 276 275 272 266 260 254 249 250 251 249 245 243 240 235 226 215 213 220 223 220 222 227 227 226 229 229 228 231 227 206 200 208 214 230 252 266 264 257 259